This demonstration page uses our WeatherBlox Daily Observations layout. Learn more.

Left ArrowRight Arrow

Hourly Observations for January 2, 2015

Temp ( °F °C ) Dew Point ( °F °C ) Humidity (%) Winds ( mph kmh ) Pressure ( in mb ) Visibility ( mi km ) Precip ( " mm )
12:53 am 00:53 Mostly Cloudy 42 5.6 39 3.9 89 89 Calm 30.29 1026 7 11 0.00 0.00
1:53 am 01:53 Cloudy with Mist and Fog 42 5.6 40 4.4 92 92 Calm 30.27 1025 6 10 0.00 0.00
2:53 am 02:53 Cloudy with Mist and Fog 43 6.1 40 4.4 89 89 NE 3 6 30.27 1025 6 10 0.00 0.00
3:53 am 03:53 Cloudy 43 6.1 40 4.4 89 89 Calm 30.27 1025 7 11 0.00 0.03
4:53 am 04:53 Cloudy 43 6.1 40 4.4 89 89 Calm 30.27 1025 10 16 0.00 0.03
5:53 am 05:53 Cloudy with Light Rain 43 6.1 41 5 93 93 Calm 30.27 1025 7 11 0.01 0.25
6:53 am 06:53 Cloudy with Light Rain 43 6.1 40 4.4 89 89 Calm 30.25 1025 10 16 0.03 0.76
7:53 am 07:53 Cloudy 43 6.1 41 5 93 93 S 5 7 30.29 1026 10 16 0.00 0.03
8:53 am 08:53 Mostly Cloudy with Light Rain 44 6.7 41 5 89 89 SE 8 13 30.25 1024 9 14 0.03 0.76
9:53 am 09:53 Mostly Sunny 45 7.2 42 5.6 90 90 Calm 30.32 1027 10 16 0.00 0.03
10:53 am 10:53 Cloudy with Light Rain 46 7.8 42 5.6 86 86 Calm 30.34 1027 10 16 0.01 0.25
11:53 am 11:53 Cloudy with Light Rain 47 8.3 43 6.1 86 86 Calm 30.33 1027 10 16 0.01 0.25
12:26 pm 12:26 Cloudy with Nearby Thunderstorms 46 8 43 6 87 87 Calm 30.30 1026 10 16 0.00 0.00
12:41 pm 12:41 Cloudy with Rain 47 8.3 44 6.7 90 90 Calm 30.30 1026 5 8 0.02 0.51
12:53 pm 12:53 Cloudy with Light Rain 47 8.3 44 6.7 90 90 E 3 6 30.28 1026 5 8 0.03 0.76
1:42 pm 13:42 Cloudy with Light Rain 48 8.9 45 7.2 89 89 Calm 30.27 1025 5 8 0.05 1.27
1:53 pm 13:53 Cloudy with Light Rain 48 8.9 46 7.8 93 93 Calm 30.29 1026 3 5 0.06 1.52
2:53 pm 14:53 Cloudy with Light Rain 48 8.9 45 7.2 89 89 NE 3 6 30.29 1026 4 6 0.05 1.27
3:53 pm 15:53 Cloudy with Rain 47 8.3 45 7.2 93 93 ENE 6 9 30.29 1026 4 6 0.12 3.05
4:53 pm 16:53 Cloudy with Light Rain 47 8.3 45 7.2 93 93 Calm 30.29 1026 6 10 0.05 1.27
5:16 pm 17:16 Cloudy with Light Rain 46 8 45 7 93 93 Calm 30.30 1026 8 13 0.00 0.00
5:53 pm 17:53 Cloudy 48 8.9 45 7.2 89 89 Calm 30.29 1026 10 16 0.00 0.03
6:00 pm 18:00 Cloudy with Light Rain 48 9 45 7 87 87 Calm 30.30 1026 9 14 0.00 0.00
6:53 pm 18:53 Cloudy with Light Rain 48 8.9 46 7.8 93 93 Calm 30.28 1026 5 8 0.02 0.51
7:53 pm 19:53 Cloudy with Rain 48 8.9 46 7.8 93 93 NW 3 6 30.28 1025 3 5 0.09 2.29
8:07 pm 20:07 Cloudy with Rain 48 9 46 8 94 94 NW 5 7 30.30 1026 3 4 0.00 0.00
8:22 pm 20:22 Cloudy with Rain 48 9 46 8 94 94 Calm 30.27 1025 3 4 0.00 0.00
8:51 pm 20:51 Cloudy with Rain 48 9 46 8 94 94 Calm 30.27 1025 3 5 0.17 4.32
8:52 pm 20:52 Cloudy with Rain 48 8.9 47 8.3 96 96 Calm 30.29 1026 3 5 0.17 4.32
9:53 pm 21:53 Cloudy 48 8.9 46 7.8 93 93 SE 7 11 30.28 1025 10 16 0.01 0.25
10:53 pm 22:53 Cloudy 48 8.9 45 7.2 89 89 E 3 6 30.29 1026 10 16 0.00 0.00
11:53 pm 23:53 Cloudy 48 8.9 45 7.2 89 89 E 3 6 30.28 1025 10 16 0.00 0.00

Powered by AerisWeather